Location: Newark
(35.9031°N, 139.7175°E)
Time: 12:14:48
(UTC+00:00)

Transit 2A - Pass Details

Date: 28 May 2020
Orbit: 592 x 967 km, 66.7° (Epoch: 06 July)

Event Time Altitude Azimuth Distance (km) Brightness Sun altitude
Rises 12:20:31 0° 345° (NNW) 3,541 10.6 -23.9°
Reaches altitude 10° 12:23:39 10° 1° (N) 2,643 9.5 -24.3°
Maximum altitude 12:28:20 22° 50° (NE) 1,968 8.1 -24.8°
Enters shadow 12:30:32 18° 77° (ENE) 2,153 8.1 -25.0°
